CAPE
0 0 0 0 0 0 0 0 0 0 0 0 0 0 0 0 0 0 0 0 0 0 406 921 670 489 168 73 58 133 466 764 985 950 640 620 735 683 593 520 227 94 52 4 0 0 0 0 0
0 0 0 0 0 0 0 0 0 0 0 0 0 0 0 0 0 0 0 0 0 0 286 858 921 675 325 142 88 53 80 169 235 281 358 459 429 412 425 113 23 51 0 0 0 0 0 0 0
0 0 0 0 0 0 0 0 0 0 0 0 0 0 0 0 0 0 2 0 0 0 199 630 798 719 668 242 142 64 17 3 1 3 12 59 61 43 16 3 19 14 0 0 0 0 0 0 0
0 0 0 0 0 0 0 0 0 0 0 0 0 0 0 0 1 114 6 0 0 0 190 442 536 756 733 390 228 135 63 10 0 0 0 0 0 0 0 4 0 0 0 0 0 0 0 0 0
0 0 0 0 0 0 0 0 0 0 0 0 0 0 0 0 53 94 30 0 0 0 130 438 442 756 705 566 287 257 180 70 2 0 0 0 0 0 0 0 0 0 0 0 0 0 0 0 0
0 0 0 0 0 0 0 0 0 0 0 0 0 0 0 0 55 60 27 0 0 0 159 310 511 769 795 633 304 360 311 174 66 7 0 6 25 12 0 0 0 0 0 0 0 0 0 0 0
0 0 0 0 0 0 0 0 0 0 0 0 0 0 0 0 65 40 10 0 0 48 136 466 387 580 901 958 365 427 512 353 215 93 37 79 104 105 37 0 0 0 0 0 0 0 0 0 0
0 0 0 0 0 0 0 0 0 0 0 0 0 0 0 0 116 66 24 12 0 21 90 308 517 512 692 842 718 360 518 525 435 308 294 246 309 315 204 76 13 6 10 3 0 0 0 0 0
0 0 0 0 0 0 0 0 0 0 0 0 0 0 0 0 143 95 67 8 0 2 110 246 412 551 574 623 827 515 495 557 555 529 547 507 562 705 564 309 251 122 21 0 0 0 1 0 0
0 0 0 0 0 0 0 0 0 0 0 0 0 0 0 0 3 0 79 20 0 0 24 223 406 556 606 525 691 709 614 593 660 733 874 802 781 797 646 528 355 288 169 28 0 2 5 8 0
0 0 0 0 0 0 0 0 0 0 0 0 0 0 0 0 0 0 1 71 0 0 0 78 373 418 385 295 409 539 542 577 716 720 881 945 724 479 552 423 483 420 343 168 64 25 4 0 0
0 0 0 0 0 0 0 0 0 0 0 0 0 0 0 0 0 0 0 0 57 1 0 1 148 198 257 276 221 220 175 237 183 283 580 463 176 196 240 223 202 364 201 139 79 9 13 27 1
0 0 0 0 0 0 0 0 0 0 0 0 0 0 0 0 0 0 0 0 0 35 5 0 2 17 174 251 133 39 11 0 1 32 231 287 105 65 63 47 47 34 85 49 36 7 16 18 11
0 0 0 0 0 0 0 0 0 0 0 0 0 0 0 0 0 0 0 0 0 0 0 66 0 0 0 16 36 127 6 0 14 18 11 69 7 0 0 0 0 0 0 2 0 6 0 0 0
0 0 0 0 0 0 0 0 0 0 0 0 0 0 0 0 0 0 0 0 0 0 0 0 67 25 0 0 0 7 0 0 0 0 3 0 0 0 0 0 0 0 0 0 0 0 8 0 0
0 0 0 0 0 0 0 0 0 0 0 0 0 0 0 0 0 0 0 0 0 0 0 0 0 17 79 5 0 0 0 0 0 0 0 0 0 0 0 0 0 0 0 0 0 10 16 12 8
0 0 0 0 0 0 0 0 0 0 0 0 0 0 0 0 0 0 0 0 0 0 0 0 0 0 0 102 14 5 0 0 0 0 0 0 0 0 0 0 0 0 0 6 54 75 60 95 58
0 0 0 0 0 0 0 0 0 0 0 0 0 0 0 0 0 0 0 0 0 0 0 0 0 0 38 425 243 26 2 1 0 0 0 0 0 0 0 0 0 42 51 119 149 197 162 169 130
0 0 0 0 0 0 0 0 0 0 0 0 0 0 0 0 0 0 0 0 0 0 0 0 0 0 0 58 411 345 306 129 9 0 0 0 0 0 0 0 30 198 215 334 290 267 283 232 148
0 0 0 0 0 0 0 0 0 0 0 0 0 0 0 0 0 0 0 0 0 0 0 0 0 0 0 0 237 341 546 474 373 276 83 135 104 22 36 72 331 346 400 423 379 319 382 367 182
0 0 0 0 0 0 0 0 0 0 0 0 0 0 0 0 0 0 0 0 0 0 0 0 0 0 0 0 0 407 582 636 657 656 641 460 208 98 102 230 493 589 553 492 471 450 510 607 238
0 0 0 0 0 0 0 0 0 0 0 0 0 0 0 0 0 0 0 0 0 0 0 0 0 0 0 0 0 0 0 125 462 737 1000 738 390 278 398 563 745 895 616 631 579 547 582 587 584
0 0 0 0 0 0 0 0 0 0 0 0 0 0 0 0 0 0 0 0 0 0 0 0 0 0 0 0 0 0 0 30 434 648 757 860 769 473 789 1026 1089 903 842 788 720 649 595 493 682
0 0 0 0 0 0 0 0 0 0 0 0 0 0 0 0 0 0 0 0 0 0 0 0 0 0 0 0 0 0 0 0 6 387 525 558 820 1062 1208 1351 1107 1109 922 813 900 862 666 586 666
0 0 0 0 0 0 0 0 0 0 0 0 0 0 0 0 0 0 0 0 0 0 0 0 0 0 0 0 0 0 0 0 0 2 200 450 690 915 1083 1108 917 861 754 853 1112 1011 820 789 847
0 0 0 0 0 0 0 0 0 0 0 0 0 0 0 0 0 0 0 0 0 0 0 0 0 0 0 0 0 0 0 0 0 0 66 316 503 877 1078 944 852 823 721 1063 1164 1138 1150 1045 941
0 0 0 0 0 0 0 0 0 0 0 0 0 0 0 0 0 0 0 0 0 0 0 0 0 0 0 0 0 0 0 0 0 0 11 133 505 911 958 841 589 490 909 1328 1445 1409 1337 1163 948
0 0 0 0 0 0 0 0 0 0 0 0 0 0 0 0 0 0 0 0 0 0 0 0 0 0 0 0 0 0 0 0 0 0 0 75 389 621 620 578 544 626 1318 1513 1569 1532 1438 1132 681
0 0 0 0 0 0 0 0 0 0 0 0 0 0 0 0 0 0 0 0 0 0 0 0 0 0 0 0 0 0 0 0 0 0 0 90 419 567 694 576 584 884 1483 1670 1526 1391 1174 905 625
0 0 0 0 0 0 2 0 0 0 0 0 0 0 0 11 2 0 0 0 0 0 0 0 0 0 0 0 0 0 0 0 0 0 0 244 387 620 806 787 796 1215 1701 1664 1458 1359 886 657 550
CIN
0 0 0 0 0 0 0 0 0 0 0 0 0 0 0 0 0 0 0 0 0 0 -607 -481 -494 -512 -563 -619 -623 -483 -333 -245 -213 -205 -233 -228 -209 -205 -199 -201 -238 -280 -271 -194 0 0 0 0 0
0 0 0 0 0 0 0 0 0 0 0 0 0 0 0 0 0 0 0 0 0 0 -648 -507 -446 -462 -526 -572 -607 -594 -524 -405 -344 -299 -279 -264 -267 -258 -238 -285 -315 -318 0 0 0 0 0 0 0
0 0 0 0 0 0 0 0 0 0 0 0 0 0 0 0 0 0 -95 0 0 0 -659 -577 -512 -449 -418 -528 -568 -610 -633 -170 -159 -129 -106 -355 -359 -365 -102 -70 -359 -362 0 0 0 0 0 0 0
0 0 0 0 0 0 0 0 0 0 0 0 0 0 0 0 -53 -422 -193 0 0 0 -635 -609 -568 -465 -404 -480 -527 -577 -610 -529 0 0 0 0 0 0 0 -98 0 0 0 0 0 0 0 0 0
0 0 0 0 0 0 0 0 0 0 0 0 0 0 0 0 -541 -598 -651 0 0 -81 -648 -590 -581 -486 -472 -467 -518 -522 -542 -560 -82 0 0 0 0 0 0 0 0 0 0 0 0 0 0 0 0
0 0 0 0 0 0 0 0 0 0 0 0 0 0 0 0 -571 -694 -753 0 0 -168 -669 -617 -582 -489 -467 -496 -537 -505 -504 -523 -528 -344 0 -299 -470 -235 0 0 0 0 0 0 0 0 0 0 0
0 0 0 0 0 0 0 0 0 0 0 0 0 0 0 0 -654 -773 -846 0 0 -703 -713 -570 -563 -506 -424 -401 -529 -519 -489 -491 -494 -474 -480 -453 -454 -449 -480 0 0 0 -25 0 0 0 0 0 0
0 0 0 0 0 0 0 0 0 0 0 0 0 0 0 0 -557 -744 -791 -845 0 -748 -671 -581 -521 -471 -438 -386 -431 -513 -479 -455 -445 -434 -417 -403 -401 -386 -397 -467 -496 -513 -506 -344 0 0 0 0 0
0 0 0 0 0 0 0 0 0 0 0 0 0 0 0 0 -445 -569 -605 -686 0 -249 -720 -584 -514 -472 -444 -409 -387 -471 -467 -451 -431 -406 -386 -377 -329 -292 -298 -348 -383 -441 -513 0 0 0 -157 0 0
0 0 0 0 0 0 0 0 0 0 0 0 0 0 0 0 -186 0 -458 -538 0 0 -771 -637 -564 -504 -472 -460 -420 -418 -419 -408 -395 -373 -336 -339 -322 -303 -305 -312 -369 -365 -420 -524 0 -299 -523 -389 0
0 0 0 0 0 0 0 0 0 0 0 0 0 0 0 0 0 0 -47 -398 0 -264 0 -651 -634 -602 -554 -534 -500 -459 -466 -433 -416 -414 -384 -352 -381 -425 -366 -361 -340 -332 -357 -427 -490 -517 -475 0 0
0 0 0 0 0 0 0 0 0 0 0 0 0 0 0 0 0 0 0 0 -390 -53 0 -566 -622 -644 -581 -560 -585 -561 -561 -585 -572 -525 -479 -495 -586 -545 -497 -476 -461 -400 -456 -463 -496 -537 -537 -497 -177
0 0 0 0 0 0 0 0 0 0 0 0 0 0 0 0 0 0 0 0 0 -277 -165 0 -390 -548 -577 -586 -615 -607 -605 0 -252 -645 -595 -559 -575 -587 -601 -590 -593 -610 -578 -591 -575 -602 -585 -555 -537
0 0 0 0 0 0 0 0 0 0 0 0 0 0 0 0 0 0 0 0 0 0 0 -347 0 0 -129 -593 -611 -657 -670 0 -702 -700 -709 -695 -685 -186 0 0 0 0 0 -224 0 -588 -29 -128 0
0 0 0 0 0 0 0 0 0 0 0 0 0 0 0 0 0 0 0 0 0 0 0 0 -316 -352 0 0 0 -570 -90 -55 0 0 -771 0 0 0 0 0 0 0 0 0 0 -47 -662 0 0
0 0 0 0 0 0 0 0 0 0 0 0 0 0 0 0 0 0 0 0 0 0 0 0 0 -294 -499 -478 -80 -200 0 0 0 0 0 0 0 0 0 0 0 0 0 0 0 -574 -597 -566 -531
0 0 0 0 0 0 0 0 0 0 0 0 0 0 0 0 0 0 0 0 0 0 0 0 0 0 0 -410 -505 -641 0 0 0 0 0 0 0 0 0 0 0 0 -22 -302 -615 -561 -536 -454 -436
0 0 0 0 0 0 0 0 0 0 0 0 0 0 0 0 0 0 0 0 0 0 0 0 0 0 -291 -316 -421 -455 -671 -472 0 0 0 0 0 0 0 0 0 -647 -658 -571 -552 -497 -497 -422 -365
0 0 0 0 0 0 0 0 0 0 0 0 0 0 0 0 0 0 0 0 0 0 0 0 0 0 0 -284 -273 -378 -430 -559 -645 0 0 0 0 0 0 0 -614 -523 -531 -451 -484 -468 -405 -393 -406
0 0 0 0 0 0 0 0 0 0 0 0 0 0 0 0 0 0 0 0 0 0 0 0 0 0 0 0 -262 -342 -356 -431 -444 -498 -506 -557 -670 -647 -576 -414 -487 -452 -465 -451 -449 -442 -348 -342 -388
0 0 0 0 0 0 0 0 0 0 0 0 0 0 0 0 0 0 0 0 0 0 0 0 0 0 0 0 0 -305 -368 -408 -400 -429 -491 -549 -404 -405 -262 -472 -365 -406 -444 -392 -414 -401 -325 -259 -369
0 0 0 0 0 0 0 0 0 0 0 0 0 0 0 0 0 0 0 0 0 0 0 0 0 0 0 0 0 0 0 -375 -320 -316 -315 -300 -426 -397 -524 -404 -324 -379 -420 -375 -369 -374 -309 -292 -250
0 0 0 0 0 0 0 0 0 0 0 0 0 0 0 0 0 0 0 0 0 0 0 0 0 0 0 0 0 0 0 -468 -373 -311 -331 -340 -336 -372 -360 -346 -349 -392 -379 -360 -340 -341 -314 -305 -217
0 0 0 0 0 0 0 0 0 0 0 0 0 0 0 0 0 0 0 0 0 0 0 0 0 0 0 0 0 0 0 0 -118 -392 -410 -437 -367 -325 -318 -347 -374 -380 -354 -345 -317 -292 -303 -263 -206
0 0 0 0 0 0 0 0 0 0 0 0 0 0 0 0 0 0 0 0 0 0 0 0 0 0 0 0 0 0 0 0 0 -120 -395 -419 -414 -367 -342 -365 -358 -378 -342 -329 -293 -269 -236 -198 -135
0 0 0 0 0 0 0 0 0 0 0 0 0 0 0 0 0 0 0 0 0 0 0 0 0 0 0 0 0 0 0 0 0 0 -412 -409 -388 -356 -310 -331 -344 -340 -335 -310 -273 -206 -145 -88 -65
0 0 0 0 0 0 0 0 0 0 0 0 0 0 0 0 0 0 0 0 0 0 0 0 0 0 0 0 0 0 0 0 0 0 -521 -471 -426 -368 -331 -306 -340 -332 -322 -255 -190 -125 -82 -41 -45
0 0 0 0 0 0 0 0 0 0 0 0 0 0 0 0 0 0 0 0 0 0 0 0 0 0 0 0 0 0 0 0 0 0 0 -514 -445 -399 -343 -330 -317 -308 -267 -203 -144 -62 -36 -33 -85
0 0 0 0 0 0 0 0 0 0 0 0 0 0 0 0 0 0 0 0 0 0 0 0 0 0 0 0 0 0 0 0 0 0 0 -531 -421 -343 -324 -301 -290 -263 -215 -154 -106 -49 -40 -35 -64
0 0 0 -1 0 0 -2 0 0 0 0 0 0 0 0 -150 -159 0 0 0 0 0 0 0 0 0 0 0 0 0 0 0 0 0 0 -499 -371 -348 -308 -264 -250 -221 -172 -118 -69 -43 -50 -63 -65
Wind_Speed
21 24 20 22 23 22 23 20 19 16 17 18 20 18 20 21 15 16 16 10 12 22 25 25 26 26 28 29 30 31 31 30 30 30 30 29 28 28 27 25 24 23 23 22 22 21 22 22 21
21 18 21 25 27 30 24 22 22 19 22 24 23 20 21 23 22 36 31 4 17 25 25 25 25 26 28 29 30 30 29 29 29 29 29 28 27 26 25 24 23 22 21 20 20 20 20 21 21
18 16 24 27 30 34 26 22 18 20 25 22 22 23 19 21 23 26 25 5 15 25 26 25 25 25 26 27 28 28 29 28 28 29 28 27 26 25 24 22 21 20 19 19 18 18 18 19 19
17 19 22 30 33 28 24 23 23 26 25 21 24 24 22 19 27 26 23 4 14 26 25 25 25 25 27 26 27 27 27 27 27 27 26 25 24 23 22 21 20 19 18 17 16 16 16 16 17
19 21 33 33 32 29 27 25 25 28 28 26 24 25 27 23 28 24 17 5 17 24 25 25 24 26 27 26 25 25 25 26 26 26 26 24 23 22 21 20 18 17 16 15 15 14 14 14 14
23 24 37 40 37 30 32 32 32 26 25 27 25 25 21 26 25 20 15 9 15 17 21 24 23 23 25 26 25 24 23 24 24 24 24 23 22 20 19 18 17 15 15 13 13 12 12 12 12
27 30 39 38 37 36 37 26 35 28 27 23 24 24 24 26 24 20 13 13 12 14 16 21 23 21 19 19 22 22 21 22 22 21 21 21 19 17 17 16 15 13 13 12 11 10 10 9 10
26 28 35 35 38 41 32 30 26 32 32 25 23 22 26 27 23 19 15 14 14 13 14 16 17 18 17 14 16 18 18 18 18 18 18 18 15 15 14 13 12 12 11 10 9 9 8 7 7
21 37 43 37 35 36 25 28 24 33 36 30 25 23 25 26 21 19 16 16 17 15 13 12 13 12 13 12 12 12 14 15 15 16 15 14 13 13 12 11 10 9 9 8 8 7 7 6 5
25 38 40 32 34 34 27 29 27 31 35 37 32 30 28 27 23 22 18 20 20 20 18 16 13 12 11 10 9 11 15 15 16 16 14 13 12 11 11 9 8 7 7 6 7 6 5 5 5
22 37 32 33 31 32 33 31 26 31 43 33 34 33 31 27 25 23 20 24 26 25 27 30 21 20 17 17 20 12 7 9 11 13 12 11 9 8 8 7 6 6 5 5 6 6 5 4 5
26 25 32 34 32 33 35 32 34 33 41 38 36 37 30 29 27 26 23 19 24 28 30 32 35 28 31 28 26 23 13 8 8 9 9 6 4 4 4 4 5 5 5 5 6 7 7 5 4
21 25 29 33 33 35 37 41 40 45 40 41 38 35 34 33 30 27 27 26 21 27 33 36 30 36 34 37 34 32 32 25 17 7 6 3 2 1 1 2 3 4 4 5 7 7 9 7 7
18 22 30 35 36 36 39 44 37 40 34 39 42 38 31 32 30 28 27 29 27 23 25 32 35 34 35 41 40 37 32 33 32 24 9 6 7 6 3 3 2 5 5 5 8 8 10 9 8
20 25 27 33 34 36 35 47 42 31 30 40 54 53 40 30 29 28 26 28 32 25 23 25 28 35 40 48 23 42 30 29 36 34 23 16 15 14 7 7 5 6 7 7 9 11 10 11 9
21 22 25 22 27 26 30 48 29 28 30 36 39 38 39 35 33 31 28 27 26 35 26 25 29 25 33 37 43 43 33 27 35 32 27 21 15 18 12 12 8 7 9 10 10 12 11 12 10
19 22 24 26 26 27 29 38 32 32 35 36 38 37 37 34 34 32 29 28 26 27 36 33 28 28 35 38 38 44 44 36 38 30 20 25 16 16 13 10 10 9 10 11 11 13 11 13 10
23 23 23 27 27 30 37 43 39 40 39 39 38 39 41 38 36 34 30 29 29 28 29 38 35 30 30 32 34 39 41 37 28 23 24 19 14 14 12 16 8 9 11 11 12 14 11 13 11
22 24 27 28 28 33 38 45 45 43 42 43 40 39 42 38 36 32 31 31 31 32 31 28 37 36 31 33 29 34 34 32 29 28 24 23 22 21 18 14 13 12 12 10 12 13 13 13 11
22 26 30 30 28 34 38 44 42 39 38 38 37 34 32 34 33 37 34 34 34 35 36 35 32 30 33 37 39 33 29 27 25 31 30 24 22 22 23 36 14 11 13 13 12 12 14 14 9
24 27 30 32 32 35 36 40 30 28 36 30 28 28 29 33 36 34 38 37 36 37 38 39 38 35 31 32 32 37 30 32 30 28 26 22 21 16 20 20 13 13 13 14 13 12 11 14 12
28 22 27 30 33 36 30 41 36 35 27 25 26 30 33 30 29 32 35 38 39 40 40 41 41 41 38 36 35 35 35 34 32 28 27 24 22 21 17 16 14 13 15 15 13 12 12 13 15
25 23 27 31 36 38 34 36 33 24 28 24 26 28 31 31 32 33 33 36 38 40 43 44 44 45 44 42 39 38 38 37 36 33 30 26 26 23 20 16 15 15 15 16 15 14 14 13 14
20 26 30 28 28 34 27 29 32 27 24 25 33 31 29 30 30 31 33 36 39 40 40 44 48 48 46 44 43 43 42 41 38 33 31 27 26 24 19 16 16 17 17 17 15 13 14 14 13
22 27 32 29 26 30 23 35 35 25 27 38 40 36 33 28 30 34 38 39 41 43 45 46 47 52 50 49 47 45 44 42 41 38 32 30 27 25 21 19 19 17 17 16 15 15 15 15 14
23 25 29 33 32 34 34 35 30 25 33 35 34 30 31 33 35 39 38 39 42 44 45 48 49 50 51 50 50 47 46 43 41 38 36 34 31 25 23 20 18 16 16 16 15 17 17 15 13
22 24 22 30 33 37 32 34 37 29 29 28 29 27 31 35 41 40 40 40 42 43 45 47 49 50 49 51 52 52 49 46 45 41 37 37 32 25 22 19 18 17 16 15 15 17 15 14 11
20 15 23 22 31 35 33 41 37 36 31 28 33 34 35 42 41 39 39 41 44 44 46 47 48 50 50 50 51 51 50 47 44 42 40 39 34 26 23 21 19 17 15 14 15 15 13 12 10
19 21 19 21 23 31 39 34 27 30 34 33 35 33 43 43 41 40 40 42 44 46 51 48 48 50 51 51 50 50 50 47 42 37 35 35 34 30 28 25 20 17 15 14 14 12 12 9 7
17 18 16 21 23 23 32 45 32 33 29 28 34 45 41 38 39 40 41 44 47 49 51 48 49 51 50 50 50 51 49 46 41 37 32 30 30 29 28 23 19 17 15 13 11 11 9 6 5
Wind_Direction
309 280 279 279 273 271 268 272 275 286 291 286 289 285 284 286 291 294 303 124 127 135 136 136 134 133 131 126 122 121 118 118 117 117 117 115 114 113 112 105 101 98 96 88 82 78 73 70 68
308 310 279 268 268 262 267 271 270 281 288 285 284 285 286 285 289 245 266 58 142 141 138 138 138 137 134 132 127 125 120 119 119 120 120 118 115 115 112 108 105 101 97 92 86 81 77 73 69
308 305 268 261 263 258 265 267 269 281 286 289 290 287 288 290 291 273 274 173 151 147 143 140 141 139 138 134 131 127 124 123 122 124 123 121 117 115 116 111 106 106 100 94 87 82 79 76 70
299 292 278 260 258 264 265 260 266 281 290 287 288 281 291 296 291 266 274 226 163 151 146 143 142 140 140 139 135 131 128 127 126 127 126 125 121 118 114 115 110 110 104 100 91 87 84 82 76
293 285 262 260 262 262 262 263 277 280 282 282 288 281 283 295 294 271 275 211 163 152 148 146 144 144 143 142 139 136 133 132 130 130 131 129 126 122 118 118 116 112 107 103 98 93 88 85 80
278 277 261 258 262 267 263 258 261 279 283 281 285 285 283 296 301 290 271 239 171 163 151 149 149 148 147 145 143 142 139 137 134 135 135 134 131 128 123 121 118 115 108 107 103 98 94 89 83
272 269 263 261 263 264 262 263 255 269 277 280 290 281 287 300 301 291 273 241 208 177 160 151 152 153 152 150 148 146 142 142 140 139 138 137 135 129 128 122 121 118 112 106 103 98 93 89 80
272 271 265 265 261 260 265 264 256 260 268 282 288 286 290 299 295 293 275 236 221 204 172 163 160 161 160 163 157 152 147 144 142 139 141 141 131 132 132 124 120 119 107 102 100 98 95 88 77
278 264 260 263 264 266 277 269 276 255 262 272 279 285 289 297 291 290 278 238 230 221 214 197 180 178 173 176 172 166 156 150 146 145 143 137 134 133 132 131 121 125 114 99 91 91 88 79 71
271 264 262 268 268 268 274 275 279 259 261 262 271 278 288 291 289 287 280 244 233 230 230 228 218 205 205 205 195 178 162 159 157 154 149 147 139 134 131 126 125 127 113 95 80 76 72 70 52
279 267 270 266 269 270 269 274 280 262 255 265 267 279 285 286 286 284 279 253 241 239 239 233 238 239 237 240 245 240 202 171 164 160 153 148 137 130 126 107 101 119 112 78 64 53 50 41 30
278 280 270 268 270 270 267 271 269 267 257 265 270 275 280 282 282 274 275 268 250 245 244 239 236 241 239 244 247 250 245 221 191 172 164 154 139 133 113 94 75 73 75 57 42 33 28 19 8
285 280 275 272 271 269 269 266 269 265 270 264 268 270 276 274 277 277 272 256 261 255 246 244 246 242 243 241 245 248 248 252 258 241 192 206 190 169 94 67 51 31 37 39 20 17 15 11 8
300 289 280 273 270 270 267 267 272 268 274 266 263 267 275 276 275 273 269 263 261 268 267 253 247 249 245 244 246 245 254 250 252 265 269 260 287 305 313 328 350 355 5 16 9 6 5 8 11
302 292 286 277 273 269 270 261 266 279 280 267 255 259 263 274 273 273 271 268 257 265 275 267 259 251 246 238 243 230 260 258 251 256 272 280 285 295 299 314 318 332 346 352 355 356 357 2 9
302 297 286 285 279 277 268 259 273 288 282 271 263 263 260 263 269 268 269 272 276 257 267 276 263 268 251 253 249 251 255 258 261 264 269 277 278 286 299 305 303 313 331 342 347 349 351 355 3
303 293 291 286 287 281 272 265 273 283 282 275 268 266 262 264 267 267 271 272 277 280 263 267 272 272 254 259 259 252 252 259 259 267 271 270 273 280 286 286 297 310 322 332 341 343 344 349 355
294 295 294 288 287 285 275 269 273 278 280 275 273 269 262 264 264 267 268 272 275 280 279 260 267 264 267 266 265 258 254 257 262 259 268 269 267 278 275 293 285 301 316 326 334 336 339 344 348
299 297 292 293 295 287 279 274 275 280 278 274 274 271 259 265 265 267 270 274 273 274 279 280 265 262 271 263 271 264 263 265 265 262 261 271 277 289 290 286 297 298 308 316 329 334 333 338 345
299 295 292 294 296 289 283 276 280 280 281 279 276 274 273 271 274 265 269 271 274 274 275 277 279 274 269 264 265 268 269 271 271 269 265 266 273 281 296 267 288 290 308 317 325 329 334 334 340
298 295 295 292 296 293 288 281 285 286 288 286 280 275 279 279 279 273 270 273 275 275 275 275 276 275 274 274 275 266 271 271 272 270 266 258 262 259 285 274 249 291 302 315 320 323 325 330 332
295 305 301 298 295 288 299 277 283 285 292 288 288 283 282 283 282 283 280 278 277 277 277 275 275 274 274 275 274 273 271 269 271 274 273 266 258 274 265 266 250 283 300 308 315 320 322 328 326
302 310 303 299 292 290 290 284 284 293 292 295 295 292 287 284 284 285 285 283 282 281 277 276 275 274 273 274 273 273 271 270 271 272 273 273 268 263 271 255 255 283 294 305 309 315 312 316 321
313 307 303 303 299 288 293 288 286 294 292 293 298 298 298 292 289 289 288 287 284 285 284 278 275 272 271 271 271 269 269 269 270 269 272 272 272 265 257 251 268 283 292 299 304 311 311 309 313
307 305 299 296 295 291 302 291 287 298 299 297 292 293 294 297 294 292 291 289 288 286 283 282 277 271 269 268 268 270 270 270 268 268 269 269 269 263 256 264 273 279 289 296 302 307 308 307 308
302 301 296 291 293 294 298 290 300 311 307 305 301 298 297 297 297 296 294 292 291 289 286 283 278 274 269 268 267 268 269 269 269 266 265 268 268 265 269 264 268 276 289 295 298 304 306 309 303
303 297 307 295 296 294 297 299 302 308 314 310 309 311 304 303 299 297 296 294 294 291 288 286 280 275 271 267 268 266 266 265 265 265 264 264 267 264 265 260 268 281 286 289 296 303 306 305 298
296 307 301 303 295 295 302 299 299 308 312 313 310 306 310 308 304 299 297 299 295 294 290 289 281 274 272 269 267 265 263 262 263 264 261 259 262 263 260 261 269 275 279 283 293 303 307 300 296
302 296 299 303 303 302 303 309 325 315 312 313 313 309 310 308 306 302 297 299 298 296 291 285 281 274 271 268 266 265 261 260 260 262 260 256 257 258 259 259 263 268 273 281 293 300 304 290 287
302 298 297 295 305 308 308 301 315 312 319 325 318 311 310 310 309 305 300 299 300 296 294 283 280 273 270 269 266 262 260 257 256 257 258 254 254 257 253 251 256 262 268 278 284 296 290 278 271